Theta_e
314 314 316 317 318 314 314 313 315 315 314 315 313 311 312 314 314 314 314 313 312 312 311 310 308 304 304 306 306 304 303 299 295 291 291 291 290 290 290 290 290 290 290 290
311 311 311 312 313 315 315 316 314 315 314 311 312 314 314 315 314 313 314 313 311 310 309 307 304 305 306 305 304 301 297 293 290 290 290 290 289 290 290 290 289 289 288 288
312 312 313 313 311 310 309 309 310 310 310 310 312 312 314 315 315 315 314 312 310 309 307 303 304 305 305 304 302 297 291 290 290 289 289 289 289 288 288 288 288 288 287 287
310 313 316 314 312 312 311 312 310 313 313 312 313 313 313 314 315 315 314 311 308 307 304 304 305 305 303 302 296 291 289 289 289 288 288 288 288 288 287 287 287 286 286 286
316 315 314 316 314 312 315 315 312 314 313 312 312 311 312 313 312 313 312 309 308 305 304 305 306 305 303 296 290 289 289 289 288 288 288 288 287 287 286 286 286 286 285 285
309 315 320 315 313 313 311 316 311 312 311 312 311 311 308 312 312 311 309 308 306 305 305 305 304 301 295 291 290 289 288 288 288 287 287 287 286 286 285 285 285 285 285 284
314 315 314 311 312 313 315 311 310 310 309 309 308 310 310 311 311 309 308 307 307 305 304 302 301 298 292 292 289 288 288 287 287 286 286 286 286 285 285 284 284 284 284 284
311 314 316 311 313 314 310 309 310 310 310 310 309 309 309 310 309 308 307 306 304 303 302 301 299 295 291 288 288 287 287 287 286 286 286 285 285 285 284 284 283 283 283 284
311 311 310 311 311 311 311 310 310 310 310 309 309 309 308 308 308 307 306 305 303 302 301 298 294 290 288 287 287 287 286 286 286 286 285 285 284 284 283 283 282 283 283 284
312 309 309 310 311 311 311 311 310 310 309 309 308 308 307 306 306 306 304 303 302 300 299 293 289 288 287 286 286 286 286 286 285 285 285 284 284 283 282 282 282 283 284 284
310 309 309 309 310 310 310 310 309 309 308 308 307 307 306 305 304 304 303 302 300 296 291 288 288 287 286 286 286 286 285 285 285 285 284 283 283 282 282 282 283 284 284 284
310 309 309 308 309 308 308 308 308 308 307 307 306 306 305 304 303 302 301 299 295 291 287 288 287 287 286 285 285 285 285 285 284 283 283 283 282 282 282 282 283 283 283 283
309 310 309 309 309 308 307 307 306 305 304 305 304 304 303 303 301 299 298 295 289 288 288 287 287 286 285 285 285 285 284 284 283 283 282 282 281 281 282 282 282 282 282 283
309 309 308 308 307 307 306 305 303 301 302 302 303 301 300 300 298 298 294 288 288 287 287 287 286 286 286 286 285 284 283 283 282 282 282 281 282 282 282 281 281 281 281 282
308 308 308 307 306 306 303 300 299 299 299 300 298 298 298 297 295 290 287 288 287 287 287 286 286 286 286 285 284 283 282 282 282 281 281 282 281 281 281 281 281 281 281 281
307 307 307 306 304 300 299 299 299 299 299 299 298 298 296 293 288 288 288 287 287 287 287 286 286 285 284 284 283 282 282 281 281 281 281 281 281 281 281 281 281 281 281 281
306 306 305 302 300 299 299 299 299 299 298 298 298 296 293 289 288 288 287 287 287 286 286 285 285 285 284 283 282 281 281 281 281 281 281 281 281 281 281 282 281 281 280 280
303 300 299 300 300 299 298 298 299 299 299 298 297 293 289 288 288 288 287 287 286 286 285 286 285 284 283 282 281 281 280 280 281 281 281 281 281 281 281 281 280 281 280 280
300 301 301 300 298 297 297 298 298 299 298 297 294 289 288 287 287 287 286 286 286 286 286 285 284 283 282 281 280 280 280 281 281 281 280 281 280 281 280 280 280 280 280 279
300 300 300 299 297 296 296 297 298 298 297 293 289 288 287 287 286 286 286 286 286 285 284 284 283 281 281 280 280 281 281 281 280 280 280 280 280 279 279 279 279 279 279 279
298 299 300 300 299 297 295 295 296 295 291 288 288 287 287 287 286 286 286 285 286 284 283 283 282 281 280 280 281 281 280 280 280 279 279 279 279 279 278 278 278 278 278 278
298 297 299 299 298 297 295 294 294 291 288 287 287 287 287 286 286 286 285 285 284 283 282 281 281 280 280 280 280 280 280 279 279 279 279 279 278 278 278 278 278 278 277 278
298 297 297 298 298 296 295 294 293 290 287 287 286 286 286 286 285 285 285 284 283 282 281 280 280 279 279 280 280 280 279 279 279 279 279 278 278 278 277 277 277 277 277 277
298 297 296 297 297 295 293 293 292 289 287 286 286 286 286 286 285 284 283 282 281 281 280 280 279 279 279 279 279 279 279 279 279 278 278 278 278 277 277 277 277 277 277 277
297 296 296 296 295 292 293 293 291 289 288 287 286 286 285 284 283 282 282 281 280 280 280 279 279 279 279 279 279 279 279 279 278 277 277 277 277 276 276 277 277 277 277 277
296 295 295 294 292 292 292 291 290 289 288 287 286 285 284 283 282 281 281 280 280 279 279 279 279 279 279 279 279 279 279 278 278 278 276 276 276 276 276 277 277 277 277 277
294 294 293 291 291 291 290 289 288 287 286 285 284 283 282 282 281 280 279 279 279 279 279 279 279 279 279 279 279 279 278 278 278 276 276 276 276 276 276 277 277 277 277 277
Wind_Speed
3 4 4 4 6 9 7 5 6 3 6 2 1 5 8 11 10 11 21 22 21 18 15 11 4 3 8 13 18 21 22 21 22 24 25 25 26 26 27 28 29 31 33 34
1 4 4 1 2 6 3 3 3 3 4 3 3 2 2 4 6 15 21 22 19 17 13 6 2 6 13 18 21 22 22 21 23 25 25 25 25 26 27 29 31 33 34 34
2 2 3 4 8 7 4 4 6 5 3 2 3 4 3 1 6 14 19 22 21 16 9 4 3 11 18 21 22 21 20 22 24 24 25 25 26 28 30 32 34 35 36 36
3 2 2 2 3 4 6 4 4 6 4 3 4 4 1 2 6 11 20 21 18 13 8 2 8 17 19 20 19 18 21 22 23 24 25 27 29 30 32 34 35 36 37 36
4 4 2 1 4 6 5 1 3 3 2 4 1 1 4 5 7 11 17 18 14 10 5 7 15 20 23 17 17 19 21 22 23 25 27 29 31 32 33 35 36 37 36 36
2 3 6 2 1 4 4 1 2 4 3 2 2 2 4 7 6 6 9 14 11 7 9 12 14 16 15 16 19 21 23 23 24 25 27 29 31 32 34 34 36 36 37 37
2 2 5 4 2 3 4 4 6 8 6 4 3 2 10 10 6 5 7 9 10 10 10 11 15 15 15 18 21 22 22 23 25 26 28 30 31 31 34 36 37 38 39 40
3 2 6 0 3 5 6 10 10 5 3 6 7 7 8 7 7 8 11 12 9 8 10 15 15 15 17 19 21 22 24 25 27 29 30 31 33 35 36 37 38 39 40 41
6 4 1 4 10 14 10 11 4 1 1 3 5 7 8 9 11 12 13 12 11 10 13 13 13 16 18 20 22 24 26 28 29 31 32 33 34 36 38 37 38 39 37 37
3 2 3 11 11 7 5 4 3 4 5 5 5 6 9 12 13 14 14 12 12 14 13 12 14 17 18 20 23 25 28 30 32 34 36 35 36 38 38 37 37 35 34 36
1 2 3 9 4 6 8 7 6 5 6 8 10 10 10 11 12 13 12 13 13 11 11 13 15 17 18 21 24 26 30 33 35 36 36 37 39 39 37 35 28 31 34 35
5 9 5 8 6 5 6 3 3 7 9 12 14 13 12 12 12 14 14 13 11 11 13 15 17 18 18 20 24 28 32 34 34 35 36 38 40 43 38 31 28 29 29 28
5 12 7 5 7 4 2 5 8 11 12 13 15 15 13 13 14 14 13 11 11 12 14 16 18 19 19 23 27 30 31 32 33 33 36 38 39 39 38 35 29 32 28 27
6 8 7 10 4 3 6 8 11 13 14 14 15 16 13 12 12 12 10 11 12 13 15 18 20 21 23 27 30 29 30 30 31 34 35 36 36 34 33 34 34 35 36 30
6 4 5 1 5 9 9 11 14 15 14 12 11 11 10 12 11 10 10 11 13 15 17 20 23 25 27 29 29 29 29 31 33 34 33 31 33 32 33 31 32 36 37 37
7 5 3 7 8 7 11 14 17 15 11 9 8 9 9 10 9 9 10 13 16 18 20 22 25 27 28 28 29 30 32 32 31 31 31 32 32 32 31 31 34 35 36 36
3 7 9 5 7 11 14 14 14 12 9 9 9 9 10 9 9 10 12 14 18 20 21 23 27 28 29 29 30 32 33 33 30 30 30 32 32 31 31 33 34 37 35 36
4 3 2 9 12 14 14 13 13 12 11 10 10 10 10 10 11 13 15 17 19 21 22 26 28 29 30 30 31 32 31 29 27 31 32 33 31 30 32 33 35 33 36 34
5 5 9 11 13 15 15 14 13 12 12 12 12 11 11 13 14 15 16 18 21 25 27 28 28 29 30 30 29 29 26 28 31 33 33 31 32 30 33 33 32 32 32 33
2 6 12 14 16 16 16 14 14 14 13 13 13 13 14 14 15 17 19 22 23 25 28 29 30 31 31 30 28 25 28 31 33 35 32 28 31 32 30 31 28 31 31 31
8 9 11 16 18 19 18 16 15 15 14 15 15 15 15 16 17 19 22 26 25 25 28 29 31 32 31 29 26 29 31 32 33 32 32 31 31 31 31 31 29 30 31 29
13 15 15 18 19 21 19 16 15 15 16 16 16 17 18 18 19 21 22 25 28 29 30 32 32 30 29 26 29 31 32 32 31 29 29 29 31 31 30 30 32 30 30 31
15 16 19 19 20 21 20 18 17 16 17 17 17 18 19 20 20 23 27 26 28 29 31 31 30 29 29 27 31 31 30 29 28 28 29 30 29 29 31 32 30 29 31 30
14 17 19 19 21 23 21 17 15 15 16 17 17 18 19 21 22 22 25 28 29 30 30 30 30 29 28 30 29 28 29 29 29 30 29 28 31 32 30 29 30 30 30 27
16 17 17 20 23 20 15 13 14 14 15 15 15 16 18 20 24 27 27 29 29 30 31 30 29 29 29 28 28 28 28 29 30 28 29 31 29 30 30 31 30 28 28 28
15 15 16 18 16 14 12 12 13 13 13 13 13 16 18 21 23 26 28 29 30 30 30 30 29 29 29 28 28 28 30 31 31 31 28 29 30 32 30 29 29 27 25 25
14 14 15 13 11 11 11 11 10 10 11 14 16 18 21 23 25 27 28 29 29 29 29 29 28 28 29 30 30 31 32 32 32 30 29 30 30 29 28 26 25 25 25 24
Wind_Direction
85 127 134 178 181 173 182 171 177 226 196 270 219 242 269 287 271 220 198 197 200 201 205 213 225 323 334 329 328 329 325 323 326 327 328 330 332 335 336 336 336 335 333 331
77 49 70 129 172 169 190 204 244 218 264 253 36 7 342 292 245 209 201 205 205 204 207 200 246 327 337 336 331 326 324 324 327 327 328 330 332 333 332 331 332 333 333 332
208 53 62 312 216 187 178 193 159 191 192 17 45 91 78 14 240 225 212 210 210 207 202 200 321 339 337 335 328 321 321 325 326 327 328 330 333 334 334 334 333 334 332 330
151 76 189 223 315 157 128 65 116 92 100 131 163 146 152 302 248 235 227 216 207 202 196 225 333 336 335 329 318 319 323 326 327 329 331 333 333 333 333 332 332 331 329 329
166 194 298 47 187 149 160 118 30 91 70 68 71 330 303 287 267 250 233 214 206 200 220 306 328 334 330 319 321 321 322 326 329 331 330 330 330 331 331 330 329 329 328 327
87 150 215 186 149 96 95 222 348 128 91 36 124 29 250 328 324 285 223 211 204 231 274 304 319 324 321 317 317 318 324 329 329 328 327 328 328 329 329 329 328 328 327 328
150 219 289 248 225 100 124 195 139 119 114 90 144 219 329 333 294 232 207 206 228 245 282 311 326 325 315 318 317 321 323 325 326 327 326 326 326 327 329 331 330 330 329 327
99 108 263 258 88 168 144 137 142 131 50 6 352 330 308 278 247 224 219 222 235 278 311 318 318 315 312 314 316 319 323 325 326 326 326 327 327 330 332 330 330 329 328 326
180 217 227 67 123 126 133 147 171 334 300 268 267 283 290 281 260 239 237 252 270 288 306 310 311 307 312 317 318 323 324 324 325 326 326 326 327 328 330 332 332 330 329 325
125 176 141 134 125 135 153 150 190 238 245 259 274 301 297 280 259 251 254 265 276 292 296 298 303 310 316 321 322 320 320 323 326 325 325 326 326 330 331 330 329 327 322 317
283 154 124 183 180 187 197 221 234 255 264 263 274 290 292 276 262 261 264 274 286 285 287 299 307 313 319 319 316 318 322 324 324 323 323 323 324 327 327 325 321 316 314 315
215 177 150 173 179 195 200 217 263 298 293 283 282 280 279 279 284 279 277 277 273 280 296 304 308 315 319 318 319 320 320 321 320 319 321 322 322 321 324 324 318 314 314 316
201 166 136 160 163 151 260 295 304 305 294 283 278 278 275 275 279 275 269 262 273 287 299 307 312 318 321 318 318 318 318 316 315 318 319 320 321 324 322 323 319 323 322 322
156 158 132 151 161 297 298 295 296 291 282 274 272 272 267 253 258 255 255 267 280 295 308 312 314 317 317 315 314 315 313 314 315 317 319 321 323 318 316 318 320 324 331 327
146 143 126 129 312 306 299 305 309 313 309 295 273 252 241 236 238 246 259 278 296 308 310 308 310 313 313 314 314 315 316 317 319 319 319 317 317 321 322 321 317 319 324 327
173 180 270 295 303 305 311 316 314 311 298 281 254 236 231 234 242 260 280 294 299 303 307 310 312 314 315 315 316 317 318 318 318 318 319 319 321 320 318 317 318 319 320 322
255 258 280 284 309 315 313 306 298 289 276 265 253 239 235 242 258 276 286 292 297 303 310 314 314 316 316 319 320 317 316 318 321 318 323 324 320 316 318 318 316 316 321 325
197 154 340 327 317 305 299 291 283 271 263 263 249 239 240 257 273 280 286 290 298 304 313 314 315 316 317 317 315 316 317 319 321 321 322 319 316 316 312 312 317 316 319 323
109 12 334 315 309 305 301 292 283 272 261 254 243 243 252 262 273 282 290 299 309 313 317 315 314 313 315 317 317 317 318 321 321 320 317 312 312 314 312 313 314 315 315 317
209 322 321 316 313 309 302 292 282 271 256 243 241 247 260 272 281 290 297 304 312 313 311 314 316 317 318 319 321 320 320 316 315 315 315 311 307 312 310 309 311 313 317 321
258 277 303 313 312 307 300 289 275 264 251 245 252 263 272 277 285 293 301 305 314 311 312 314 315 319 320 320 322 311 310 312 315 314 312 311 312 314 314 316 317 319 321 322
283 286 294 303 303 303 298 285 271 257 249 253 262 270 276 283 290 295 300 306 312 315 317 317 320 320 318 315 308 309 312 313 313 312 311 313 315 314 315 318 319 321 322 321
283 283 283 291 299 299 291 279 270 262 258 261 268 273 279 286 294 302 307 313 313 314 315 316 317 317 315 310 308 312 311 312 313 315 314 313 313 314 316 316 316 314 316 318
273 279 282 286 293 292 286 280 269 262 261 263 267 275 284 293 296 302 305 310 313 314 316 317 316 315 314 310 312 312 314 316 315 313 314 315 313 310 312 313 314 315 315 316
275 280 282 294 292 288 280 267 263 264 265 268 274 282 290 297 302 310 312 313 314 315 316 319 318 316 313 315 316 315 313 314 316 316 307 305 309 313 314 312 312 312 312 306
267 273 288 294 285 277 270 266 268 271 274 276 282 288 295 301 306 308 311 315 317 317 316 317 318 319 318 316 316 317 317 317 317 316 311 309 311 310 309 309 309 309 310 311
266 282 291 282 274 273 272 271 270 274 282 291 298 302 308 311 312 313 315 316 315 316 316 318 319 318 319 318 318 319 319 319 318 314 306 306 308 308 308 308 307 307 307 309